| time (UTC) | temp C | wind direction | speed KPH | gust KPH | rain 1hr cm | rain 24hr cm | rain mn cm | humidity % | barometer mb |
| 20260505223908 | 15 | 201 | 6.4 | 14.5 | 0.00 | 0.00 | 0.00 | 88 | 1009.1 |
| 20260505222908 | 15 | 204 | 6.4 | 12.9 | 0.00 | 0.00 | 0.00 | 88 | 1009.1 |
| 20260505221907 | 15 | 207 | 3.2 | 6.4 | 0.00 | 0.00 | 0.00 | 89 | 1009.0 |
| 20260505220907 | 15 | 183 | 0.0 | 1.6 | 0.00 | 0.00 | 0.00 | 93 | 1008.7 |
| 20260505215906 | 15 | 0 | 0.0 | 0.0 | 0.00 | 0.00 | 0.00 | 93 | 1008.7 |
| 20260505214906 | 15 | 0 | 0.0 | 0.0 | 0.00 | 0.00 | 0.00 | 93 | 1008.5 |
| 20260505213906 | 15 | 0 | 0.0 | 0.0 | 0.00 | 0.00 | 0.00 | 90 | 1008.1 |
| 20260505212906 | 15 | 75 | 0.0 | 1.6 | 0.00 | 0.00 | 0.00 | 90 | 1007.9 |
| 20260505211905 | 15 | 146 | 0.0 | 3.2 | 0.00 | 0.00 | 0.00 | 91 | 1007.6 |
| 20260505210905 | 15 | 127 | 0.0 | 6.4 | 0.00 | 0.00 | 0.00 | 92 | 1007.8 |
| 20260505205905 | 15 | 214 | 0.0 | 1.6 | 0.00 | 0.00 | 0.00 | 94 | 1007.7 |
| 20260505204904 | 15 | 148 | 1.6 | 4.8 | 0.00 | 0.00 | 0.00 | 94 | 1007.5 |
| 20260505203904 | 15 | 118 | 0.0 | 3.2 | 0.00 | 0.00 | 0.00 | 95 | 1007.3 |
| 20260505201903 | 15 | 198 | 1.6 | 6.4 | 0.00 | 0.00 | 0.00 | 95 | 1007.1 |
| 20260505195902 | 15 | 174 | 1.6 | 4.8 | 0.00 | 0.00 | 0.00 | 95 | 1006.5 |
| 20260505194902 | 14 | 155 | 1.6 | 9.7 | 0.00 | 0.00 | 0.00 | 96 | 1006.2 |
| 20260505193902 | 14 | 125 | 3.2 | 8.0 | 0.00 | 0.00 | 0.00 | 97 | 1006.1 |
| 20260505192901 | 15 | 155 | 1.6 | 8.0 | 0.00 | 0.00 | 0.00 | 96 | 1005.9 |
| 20260505191901 | 15 | 204 | 1.6 | 4.8 | 0.00 | 0.00 | 0.00 | 95 | 1005.8 |
| 20260505190900 | 15 | 0 | 0.0 | 0.0 | 0.00 | 0.00 | 0.00 | 89 | 1005.7 |
| 20260505185900 | 16 | 0 | 0.0 | 0.0 | 0.00 | 0.00 | 0.00 | 88 | 1005.5 |
| 20260505184900 | 16 | 0 | 0.0 | 0.0 | 0.00 | 0.00 | 0.00 | 86 | 1005.4 |
| 20260505183859 | 17 | 0 | 0.0 | 0.0 | 0.00 | 0.00 | 0.00 | 83 | 1005.3 |
| 20260505182859 | 17 | 53 | 0.0 | 4.8 | 0.00 | 0.00 | 0.00 | 82 | 1005.2 |
| 20260505181859 | 17 | 21 | 6.4 | 8.0 | 0.00 | 0.00 | 0.00 | 83 | 1005.3 |
| 20260505180858 | 16 | 31 | 6.4 | 11.3 | 0.00 | 0.00 | 0.00 | 83 | 1005.3 |
| 20260505175858 | 16 | 42 | 6.4 | 9.7 | 0.00 | 0.00 | 0.00 | 86 | 1005.3 |
| 20260505174857 | 16 | 25 | 4.8 | 8.0 | 0.00 | 0.00 | 0.00 | 84 | 1005.4 |
| 20260505173857 | 17 | 338 | 3.2 | 8.0 | 0.00 | 0.00 | 0.00 | 82 | 1005.5 |
| 20260505172857 | 17 | 314 | 1.6 | 4.8 | 0.00 | 0.00 | 0.00 | 80 | 1005.7 |
| 20260505171856 | 17 | 51 | 6.4 | 12.9 | 0.00 | 0.00 | 0.00 | 84 | 1005.8 |
| 20260505165856 | 17 | 173 | 6.4 | 14.5 | 0.00 | 0.00 | 0.00 | 76 | 1005.7 |
| 20260505164855 | 17 | 193 | 11.3 | 20.9 | 0.00 | 0.00 | 0.00 | 79 | 1005.6 |
| 20260505163855 | 17 | 207 | 11.3 | 24.1 | 0.00 | 0.00 | 0.00 | 79 | 1005.3 |
| 20260505162855 | 19 | 200 | 24.1 | 45.1 | 0.00 | 0.00 | 0.00 | 67 | 1005.1 |
| 20260505161854 | 23 | 191 | 8.0 | 20.9 | 0.00 | 0.00 | 0.00 | 45 | 1004.2 |
| 20260505160854 | 23 | 205 | 1.6 | 8.0 | 0.00 | 0.00 | 0.00 | 44 | 1004.0 |
| 20260505152852 | 24 | 7 | 3.2 | 9.7 | 0.00 | 0.00 | 0.00 | 48 | 1003.9 |
| 20260505151852 | 25 | 288 | 3.2 | 9.7 | 0.00 | 0.00 | 0.00 | 45 | 1003.9 |
| 20260505150852 | 25 | 288 | 3.2 | 9.7 | 0.00 | 0.00 | 0.00 | 48 | 1003.9 |
| 20260505124847 | 25 | 215 | 8.0 | 16.1 | 0.00 | 0.00 | 0.00 | 41 | 1004.8 |
| 20260505123846 | 25 | 160 | 8.0 | 19.3 | 0.00 | 0.00 | 0.00 | 40 | 1004.9 |
| 20260505122846 | 25 | 225 | 6.4 | 14.5 | 0.00 | 0.00 | 0.00 | 41 | 1005.2 |
| 20260505121846 | 25 | 288 | 4.8 | 16.1 | 0.00 | 0.00 | 0.00 | 40 | 1005.4 |
| 20260505120845 | 25 | 212 | 4.8 | 11.3 | 0.00 | 0.00 | 0.00 | 40 | 1005.5 |
| 20260505115845 | 25 | 219 | 4.8 | 11.3 | 0.00 | 0.00 | 0.00 | 40 | 1005.6 |
| 20260505114844 | 25 | 252 | 3.2 | 14.5 | 0.00 | 0.00 | 0.00 | 41 | 1005.9 |
| 20260505113844 | 26 | 215 | 1.6 | 9.7 | 0.00 | 0.00 | 0.00 | 41 | 1006.0 |
| 20260505112843 | 25 | 288 | 3.2 | 9.7 | 0.00 | 0.00 | 0.00 | 43 | 1006.1 |
| 20260505111843 | 25 | 343 | 3.2 | 12.9 | 0.00 | 0.00 | 0.00 | 46 | 1006.2 |
| 20260505110843 | 24 | 330 | 3.2 | 8.0 | 0.00 | 0.00 | 0.00 | 46 | 1006.3 |
| 20260505110239 | 25 | 221 | 3.2 | 9.7 | 0.00 | 0.00 | 0.00 | 40 | 1006.4 |
| 20260505100841 | 23 | 218 | 3.2 | 9.7 | 0.00 | 0.00 | 0.00 | 48 | 1007.3 |
| 20260505095840 | 23 | 246 | 3.2 | 9.7 | 0.00 | 0.00 | 0.00 | 49 | 1007.2 |
| 20260505094840 | 23 | 215 | 3.2 | 12.9 | 0.00 | 0.00 | 0.00 | 48 | 1007.3 |
| 20260505092839 | 24 | 270 | 3.2 | 14.5 | 0.00 | 0.00 | 0.00 | 48 | 1007.5 |
| 20260505090838 | 23 | 343 | 1.6 | 6.4 | 0.00 | 0.00 | 0.00 | 50 | 1007.6 |
| 20260505085838 | 23 | 256 | 0.0 | 3.2 | 0.00 | 0.00 | 0.00 | 53 | 1007.7 |
| 20260505084838 | 23 | 203 | 4.8 | 11.3 | 0.00 | 0.00 | 0.00 | 52 | 1007.7 |
| 20260505083838 | 24 | 24 | 3.2 | 8.0 | 0.00 | 0.00 | 0.00 | 53 | 1007.7 |
| 20260505082837 | 23 | 350 | 3.2 | 8.0 | 0.00 | 0.00 | 0.00 | 56 | 1007.8 |
| 20260505081838 | 23 | 201 | 0.0 | 3.2 | 0.00 | 0.00 | 0.00 | 58 | 1007.8 |
| 20260505080836 | 23 | 353 | 1.6 | 8.0 | 0.00 | 0.00 | 0.00 | 56 | 1007.9 |
| 20260505075836 | 23 | 166 | 1.6 | 6.4 | 0.00 | 0.00 | 0.00 | 57 | 1008.0 |
| 20260505074836 | 23 | 214 | 1.6 | 6.4 | 0.00 | 0.00 | 0.00 | 58 | 1008.0 |
| 20260505073835 | 23 | 326 | 0.0 | 1.6 | 0.00 | 0.00 | 0.00 | 55 | 1008.1 |
| 20260505072835 | 25 | 167 | 1.6 | 4.8 | 0.00 | 0.00 | 0.00 | 54 | 1008.2 |
| 20260505071834 | 25 | 0 | 0.0 | 0.0 | 0.00 | 0.00 | 0.00 | 53 | 1008.2 |
| 20260505070834 | 24 | 0 | 0.0 | 0.0 | 0.00 | 0.00 | 0.00 | 54 | 1008.2 |
| 20260505065834 | 23 | 138 | 0.0 | 1.6 | 0.00 | 0.00 | 0.00 | 55 | 1008.2 |
| 20260505064833 | 22 | 110 | 0.0 | 1.6 | 0.00 | 0.00 | 0.00 | 58 | 1008.2 |
| 20260505061832 | 20 | 150 | 0.0 | 4.8 | 0.00 | 0.00 | 0.00 | 66 | 1008.3 |
| 20260505060832 | 19 | 207 | 0.0 | 3.2 | 0.00 | 0.00 | 0.00 | 68 | 1008.5 |
| 20260505055832 | 18 | 215 | 1.6 | 4.8 | 0.00 | 0.00 | 0.00 | 70 | 1008.4 |
| 20260505053831 | 16 | 118 | 0.0 | 3.2 | 0.00 | 0.00 | 0.00 | 78 | 1008.4 |
| 20260505052830 | 16 | 0 | 0.0 | 0.0 | 0.00 | 0.00 | 0.00 | 82 | 1008.4 |
| 20260505051830 | 14 | 0 | 0.0 | 0.0 | 0.00 | 0.00 | 0.00 | 87 | 1008.5 |
| 20260505050830 | 12 | 0 | 0.0 | 0.0 | 0.00 | 0.00 | 0.00 | 92 | 1008.4 |
| 20260505040827 | 13 | 0 | 0.0 | 0.0 | 0.00 | 0.00 | 0.00 | 88 | 1008.7 |
| 20260505035827 | 13 | 211 | 0.0 | 1.6 | 0.00 | 0.00 | 0.00 | 85 | 1008.7 |
| 20260505034827 | 13 | 145 | 1.6 | 6.4 | 0.00 | 0.00 | 0.00 | 86 | 1008.5 |
| 20260505032826 | 14 | 55 | 3.2 | 6.4 | 0.00 | 0.00 | 0.00 | 85 | 1008.8 |
| 20260505031826 | 14 | 31 | 3.2 | 9.7 | 0.00 | 0.00 | 0.00 | 84 | 1008.9 |
| 20260505030826 | 15 | 127 | 1.6 | 4.8 | 0.00 | 0.00 | 0.00 | 83 | 1009.0 |
| 20260505024825 | 15 | 165 | 1.6 | 8.0 | 0.00 | 0.00 | 0.00 | 81 | 1009.1 |
| 20260505022824 | 15 | 135 | 3.2 | 8.0 | 0.00 | 0.00 | 0.00 | 81 | 1009.3 |
| 20260505021824 | 15 | 132 | 4.8 | 8.0 | 0.00 | 0.00 | 0.00 | 81 | 1009.3 |
| 20260505020824 | 15 | 167 | 3.2 | 8.0 | 0.00 | 0.00 | 0.00 | 81 | 1009.3 |
| 20260505015823 | 16 | 152 | 1.6 | 8.0 | 0.00 | 0.00 | 0.00 | 80 | 1009.3 |
| 20260505014823 | 16 | 156 | 3.2 | 8.0 | 0.00 | 0.00 | 0.00 | 79 | 1009.3 |
| 20260505013822 | 16 | 141 | 3.2 | 8.0 | 0.00 | 0.00 | 0.00 | 79 | 1009.4 |
| 20260505012822 | 16 | 132 | 3.2 | 11.3 | 0.00 | 0.00 | 0.00 | 79 | 1009.5 |
| 20260505011821 | 16 | 153 | 3.2 | 8.0 | 0.00 | 0.00 | 0.00 | 78 | 1009.5 |
| 20260505010821 | 16 | 156 | 4.8 | 9.7 | 0.00 | 0.00 | 0.00 | 77 | 1009.7 |
| 20260505005821 | 16 | 124 | 3.2 | 9.7 | 0.00 | 0.00 | 0.00 | 77 | 1009.8 |
| 20260505004821 | 16 | 115 | 1.6 | 4.8 | 0.00 | 0.00 | 0.00 | 77 | 1010.0 |
| 20260505002820 | 16 | 200 | 4.8 | 9.7 | 0.00 | 0.00 | 0.00 | 75 | 1010.1 |
| 20260505001819 | 16 | 172 | 4.8 | 9.7 | 0.00 | 0.00 | 0.00 | 75 | 1010.2 |
| 20260505000819 | 16 | 172 | 4.8 | 11.3 | 0.00 | 0.00 | 0.00 | 74 | 1010.3 |
| 20260504235818 | 17 | 211 | 3.2 | 11.3 | 0.00 | 0.00 | 0.00 | 74 | 1010.2 |
| 20260504234818 | 17 | 198 | 4.8 | 12.9 | 0.00 | 0.00 | 0.00 | 73 | 1010.3 |
| 20260504233818 | 17 | 190 | 4.8 | 12.9 | 0.00 | 0.00 | 0.00 | 72 | 1010.4 |
| 20260504232817 | 17 | 149 | 6.4 | 12.9 | 0.00 | 0.00 | 0.00 | 71 | 1010.3 |
| 20260504231817 | 17 | 201 | 4.8 | 9.7 | 0.00 | 0.00 | 0.00 | 73 | 1010.3 |
| 20260504230817 | 16 | 160 | 1.6 | 4.8 | 0.00 | 0.00 | 0.00 | 76 | 1010.2 |
| 20260504225816 | 15 | 131 | 6.4 | 12.9 | 0.00 | 0.00 | 0.00 | 79 | 1010.3 |
| 20260504224816 | 15 | 142 | 3.2 | 12.9 | 0.00 | 0.00 | 0.00 | 78 | 1010.0 |